DMSP 5D-2 F13 DEB, 40404

Orbit data source: Space-Track

DMSP 5D-2 F13 DEB, 40404 is space debris in SSO originally from a launch on Fri, 24 Mar 1995 UTC launched from the Air Force Western Test Range (AFWTR). Debris objects in space refer to the collection of defunct objects orbiting the Earth. Examples of debris include non-operational satellites, rocket bodies, and fragments generated from explosions, collisions, or faulty payload assembly.

Loading next visibility...
Identifier
40404, 1995-015R
Orbit
SSO
Country
Flag of USUS
Related business
Manufacturer
Unknown
Mission
Spacecraft
Bus & Motor
Unknown
Mass
Unknown
Launch date (UTC)
1995-03-24 (31 years ago)
Launch vehicle
Unknown
Launch site
Air Force Western Test Range (AFWTR)
Object type
Payload
Rocket body
Debris
Shape & HBR
Unknown shape, 0.1 m
Radar Cross Section
Medium (>0.1 m² and <1 m²)

Expand to show TLE details & history
Last TLE update: 1 day ago

TLE from 1 day ago
0 DMSP 5D-2 F13 DEB
1 40404U 95015R   26198.96714177  .00000184  00000-0  10930-3 0  9999
2 40404  98.7877 214.7851 0006944  60.3933 299.7934 14.18957044589047
Epoch: 2026-07-17T23:12Z
TLE epoch observation values (Epoch: 2026-07-17T23:12:41.048Z)
Latitude
-0.00002°
Longitude
-69.17258°
Altitude
829.308 km
Speed
7.44 km/s
True Right ascension
14h 19m 08s
True Declination
0° 00' 00"
Sunlit
Object was in daylight at epoch
Visualization orbit readout
Latitude
Unknown
Longitude
Unknown
Altitude
Unknown
Speed
Unknown
Apparent Right ascension
Unknown
Apparent Declination
Unknown
Sunlit
N/A
Visualization observer readout
Local Sidereal Time
18:49:16
Azimuth
Unknown
Elevation
Unknown
Doppler factor
Unknown
Orbital elements
Apogee altitude
831.048 km
Perigee altitude
821.043 km
Semi-major axis
7,204.183 km
Eccentricity
0.00069
Inclination
98.7877°
RAAN
214.7851°
Arg. of periapsis
60.3933°
True anomaly
299.72432°
Mean anomaly
299.7934°
Eccentric anomaly
299.75886°
Mean motion
3.54949 °/min
Orbital period
101.42 mins
BSTAR
0.0001093
Loading maneuver chart data...
Computing Atmospheric mass density...

Documentation

Showing up to 5 results
|